Regional Weather Roundup
Issued by NWS

Home | Current Version | Previous Version | Text Only | Print | Product List | Glossary On
Versions: 1 2 3 4 5 6 7 8 9 10 11 12 13 14 15 16 17 18 19 20 21 22 23 24 25 26 27 28 29 30 31 32 33 34 35 36 37 38 39 40 41 42 43 44 45 46 47 48 49 50
000
ASUS43 KLSX 200307
RWRMO

WEATHER SUMMARY FOR MISSOURI
NATIONAL WEATHER SERVICE SPRINGFIELD MO
1000 PM CDT TUE AUG 19 2014

NOTE: "FAIR" INDICATES FEW OR NO CLOUDS BELOW 12,000 FEET WITH NO
       SIGNIFICANT WEATHER AND/OR OBSTRUCTIONS TO VISIBILITY.
       CURRENT SKY AND/OR WEATHER CONDITIONS ARE NOT AVAILABLE FOR
       CHILLICOTHE AND FARMINGTON.

MOZ001>031-035>038-043-044-053-054-200400-
...NORTHERN AND WESTERN MISSOURI...

CITY           SKY/WX    TMP DP  RH WIND       PRES   REMARKS
KANSAS CTY INT CLEAR     83  71  67 SE9       29.81R
KANSAS C DTWN  CLEAR     84  75  74 E5        29.79R HX  92
LEE`S SUMMIT   CLEAR     82  73  74 SE5       29.82R
ST JOSEPH      CLEAR     75  73  93 CALM      29.80R
CHILLICOTHE      N/A     78  74  87 CALM      29.82R
KIRKSVILLE     MOCLDY    72  70  93 CALM      29.85R

$$
MOZ066>068-077>081-088>096-101>105-200400-
...SOUTHWEST MISSOURI...

CITY           SKY/WX    TMP DP  RH WIND       PRES   REMARKS
SPRINGFIELD    CLEAR     79  66  64 SW8       29.89R
JOPLIN         CLEAR     81  70  69 S8        29.87R

$$
MOZ032>034-039>042-045>050-055>058-069>072-200400-
...CENTRAL MISSOURI...

CITY           SKY/WX    TMP DP  RH WIND       PRES   REMARKS
COLUMBIA       CLEAR     78  72  81 E3        29.84R
JEFFERSON CITY CLEAR     76  72  87 CALM      29.83R
ROLLA          CLEAR     73  68  84 SE5       29.85R
SEDALIA        CLEAR     78  72  81 S5        29.84R
WHITEMAN AFB   PTCLDY    77  67  72 SE5       29.82R
OSAGE BEACH    CLEAR     75  72  88 CALM      29.85R

$$
MOZ051-052-059>065-200400-
...EAST CENTRAL MISSOURI...

CITY           SKY/WX    TMP DP  RH WIND       PRES   REMARKS
ST LOUIS INTL  PTCLDY    80  71  74 CALM      29.83R
SPIRIT OF STL  CLEAR     74  73  97 CALM      29.82R
ST CHARLES     CLEAR     76  73  91 CALM      29.82R

$$
MOZ072>076-082>087-097>100-106>115-200400-
...SOUTH CENTRAL AND SOUTHEAST MISSOURI...

CITY           SKY/WX    TMP DP  RH WIND       PRES   REMARKS
CAPE GIRARDEAU CLEAR     71  69  93 CALM      29.85R
FARMINGTON     CLEAR     73  70  88 CALM      29.88R
POPLAR BLUFF   CLEAR     80  73  79 CALM      29.84R
WEST PLAINS    PTCLDY    81  69  67 SW7       29.91R

$$



USA.gov is the U.S. government's official web portal to all federal, state and local government web resources and services.